Regional Weather Roundup
Issued by NWS Sioux Falls, SD

Home | Current Version | Previous Version | Text Only | Print | Product List | Glossary On
Versions: 1 2 3 4 5 6 7 8 9 10 11 12 13 14 15 16 17 18 19 20 21 22 23 24 25 26 27 28 29 30 31 32 33 34 35 36 37 38 39 40 41 42 43 44 45 46 47 48 49 50
459
ASUS43 KFSD 280602
RWRFSD

WEATHER ROUNDUP FOR SE SOUTH DAKOTA/SW MINNESOTA/NW IOWA
NATIONAL WEATHER SERVICE SIOUX FALLS SD
100 AM CDT WED JUN 28 2017

NOTE: "FAIR" INDICATES FEW OR NO CLOUDS BELOW 12,000 FEET WITH NO
SIGNIFICANT WEATHER AND OR OBSTRUCTIONS TO VISIBILITY.


SDZ038>040-050-052>070-280700-
SOUTHEAST SOUTH DAKOTA

CITY           SKY/WX    TMP DP  RH WIND       PRES   REMARKS
BROOKINGS      CLOUDY    71  63  75 S20G28    29.60F
CHAMBERLAIN    NOT AVBL
HURON          CLOUDY    71  57  61 S14       29.49F
6HR MIN TEMP:  71; 6HR MAX TEMP:  82; 6HR PCP: TRACE;

MADISON        MOCLDY    68  68 100 S18G28    29.61F
MITCHELL       CLOUDY    70  64  81 S14       29.58F
6HR MIN TEMP:  70; 6HR MAX TEMP:  84;

SIOUX FALLS    TSTM      70  68  93 S10G25    29.65R FOG
6HR MIN TEMP:  69; 6HR MAX TEMP:  77; 6HR PCP:  0.35;

WINNER         FAIR      73  52  47 SW17G24   29.62R
YANKTON        CLOUDY    72  69  90 NW22G28   29.66R THUNDER
$$

MNZ071-072-080-081-089-090-097-098-280700-
SOUTHWEST MINNESOTA

CITY           SKY/WX    TMP DP  RH WIND       PRES   REMARKS
FAIRMONT       CLOUDY    68  55  63 SE17G23   29.71F
JACKSON        CLOUDY    70  59  68 S15G24    29.71R
MARSHALL       LGT RAIN  67  63  87 S18       29.62F
6HR MIN TEMP:  67; 6HR MAX TEMP:  77; 6HR PCP: TRACE;

MONTEVIDEO     CLOUDY    70  52  52 S15G21    29.62F
PIPESTONE      CLOUDY    68  64  88 S16G29    29.65F
REDWOOD FALLS  TSTM      66  54  65 SE14      29.67F
TRACY          LGT RAIN  67  64  87 S16G24    29.65F
WINDOM         TSTM      66  63  88 NW14      29.73
WORTHINGTON    TSTM      67  63  87 SW12      29.69F
$$

IAZ001>003-012>014-020>022-031-032-NEZ013-014-SDZ071-280700-
NORTHWEST IOWA

CITY           SKY/WX    TMP DP  RH WIND       PRES   REMARKS
CHEROKEE       RAIN      72  64  75 S15G26    29.66F
DENISON        MOCLDY    72  64  78 S23G36    29.71F
ESTHERVILLE    CLOUDY    70  60  70 S22G35    29.70F
LE MARS        CLOUDY    75  64  69 S26G33    29.62F
ORANGE CITY    DRIZZLE   72  64  78 S13G25    29.64F
SHELDON        CLOUDY    70  64  83 SE18G24   29.63F
SIOUX CITY     CLOUDY    74  66  76 S20G36    29.63F
6HR MIN TEMP:  74; 6HR MAX TEMP:  79;

SPENCER        TSTM      70  63  78 S22G30    29.70S
6HR MIN TEMP:  70; 6HR MAX TEMP:  79; 6HR PCP:  0.01;

STORM LAKE     CLOUDY    70  63  78 S21G29    29.70F
$$

ABBREVIATIONS USED IN REMARKS
   TC - TEMPERATURE IN CELSIUS
  WCI - WIND CHILL INDEX
   HX - HEAT INDEX
  VSB - VISIBILITY





USA.gov is the U.S. government's official web portal to all federal, state and local government web resources and services.